This is the latest recevied weather packets stored in our database for station/object K1TTC. If no packets are shown the sender has not sent any weather packets the latest 10 day(s).
| Time | Temp. | Humidity | Pressure | Rain* | Wind** | Luminosity | Snow |
|---|---|---|---|---|---|---|---|
| 1788386791 | 21.67° C | 57% | 1022.6 hPa | 0 mm | - | 84 W/m² | - |
| 1788386190 | 21.67° C | 58% | 1022.5 hPa | 0 mm | - | 54 W/m² | - |
| 1788385585 | 21.67° C | 57% | 1022.6 hPa | 0 mm | - | 79 W/m² | - |
| 1788384985 | 21.67° C | 57% | 1022.6 hPa | 0 mm | - | 77 W/m² | - |
| 1788384385 | 21.67° C | 57% | 1022.5 hPa | 0 mm | - | 98 W/m² | - |
| 1788383785 | 22.22° C | 57% | 1022.2 hPa | 0 mm | - | 88 W/m² | - |
| 1788383185 | 22.22° C | 56% | 1022.3 hPa | 0 mm | - | 156 W/m² | - |
| 1788382587 | 22.22° C | 56% | 1022.4 hPa | 0 mm | - | 160 W/m² | - |
| 1788382085 | 22.22° C | 56% | 1022.6 hPa | 0 mm | - | 227 W/m² | - |
| 1788381487 | 22.22° C | 59% | 1022.6 hPa | 0 mm | - | 211 W/m² | - |
| 1788380798 | 22.22° C | 61% | 1022.7 hPa | 0 mm | - | 158 W/m² | - |
| 1788380179 | 22.78° C | 61% | 1022.9 hPa | 0 mm | - | 295 W/m² | - |
| 1788379579 | 22.22° C | 61% | 1023.1 hPa | 0 mm | - | 306 W/m² | - |
| 1788378977 | 22.22° C | 63% | 1023 hPa | 0 mm | - | 425 W/m² | - |
| 1788378377 | 22.22° C | 63% | 1023 hPa | 0 mm | - | 452 W/m² | - |
| 1788377774 | 22.22° C | 62% | 1023.2 hPa | 0 mm | - | 257 W/m² | - |
| 1788377174 | 22.22° C | 63% | 1023.3 hPa | 0 mm | - | 264 W/m² | - |
| 1788376657 | 22.22° C | 62% | 1023.4 hPa | 0 mm | - | 267 W/m² | - |
| 1788375968 | 22.22° C | 62% | 1023.4 hPa | 0 mm | - | 374 W/m² | - |
| 1788375368 | 22.22° C | 62% | 1023.4 hPa | 0 mm | - | 214 W/m² | - |
| 1788374772 | 22.22° C | 64% | 1023.3 hPa | 0 mm | - | 274 W/m² | - |
| 1788374167 | 22.22° C | 64% | 1023.3 hPa | 0 mm | - | 330 W/m² | - |
| 1788373568 | 22.22° C | 64% | 1023.1 hPa | 0 mm | - | 406 W/m² | - |
| 1788372967 | 22.78° C | 64% | 1023.3 hPa | 0 mm | - | 394 W/m² | - |
| 1788372362 | 22.78° C | 64% | 1023.4 hPa | 0 mm | - | 360 W/m² | - |
* Rain latest hour (hover to see other rain measurements)
** Current wind speed in m/s (hover to see current wind gust speed)